Location: Chrząstowo
(52.0654°N, 17.1290°E)
Time: 18:45:18
(UTC+01:00)

Envisat - Pass Details

Date: 15 December 2019
Orbit: 764 x 766 km, 98.1° (Epoch: 21 January)

Event Time Altitude Azimuth Distance (km) Brightness Sun altitude
Rises 05:51:44 0° 21° (NNE) 3,247 6.3 -17.3°
Reaches altitude 10° 05:54:21 10° 33° (NNE) 2,315 5.7 -17.0°
Maximum altitude 05:58:46 29° 93° (E) 1,392 5.1 -16.3°
Drops below altitude 10° 06:03:08 10° 153° (SSE) 2,299 6.1 -15.7°
Sets 06:05:43 0° 164° (SSE) 3,220 6.7 -15.3°
